Date String (YYYY-MM-DD hh:mm:ss) UTC,Instrument flags,Ambient pressure (hPa),Sample flow (lpm),Bypass flow (lpm),Sample temperature (°C),Ambient temperature (°C),ASC tube jacket temperature (°C),LED temperature (°C),Box temperature (°C),Sample RH (%),Span deviation,Mass concentration (μg/m³),Mass concentration (μg/m³),Mass concentration (μg/m³)
DateTimeUTC,F1_M11,P_M11,Q1_M11,Q2_M11,T1_M11,T2_M11,T3_M11,T4_M11,T5_M11,U1_M11,ZSPAN_M11,X0_M11,X2_M11,X1_M11
2022-07-12 15:00:00,,0830.7,5.00,0.00,29.8,27.5,00.0,38.5,31.6,32.5,0001.3,0018.15,0008.97,0007.70
2022-07-12 15:01:00,,0830.8,4.99,0.00,29.8,27.4,00.0,38.5,31.5,33.0,0001.2,0017.96,0008.91,0007.63
2022-07-12 15:02:00,,0830.7,5.00,0.00,29.7,27.5,00.0,38.5,31.4,33.1,0000.9,0018.74,0008.87,0007.55
2022-07-12 15:03:00,,0830.7,5.01,0.00,29.7,27.6,00.0,38.5,31.4,32.8,0000.2,0019.83,0008.79,0007.49
2022-07-12 15:04:00,,0830.7,5.01,0.00,29.7,27.7,00.0,38.5,31.4,32.7,-000.4,0020.41,0008.71,0007.46
2022-07-12 15:05:00,,0830.8,4.99,0.00,29.6,27.9,00.0,38.5,31.4,32.9,-000.3,0020.78,0008.70,0007.43
2022-07-12 15:06:00,,0830.8,5.00,0.00,29.6,28.0,00.0,38.5,31.4,33.0,-000.1,0020.89,0008.67,0007.39
2022-07-12 15:07:00,,0830.7,4.99,0.00,29.7,28.1,00.0,38.5,31.5,32.7,0000.1,0020.71,0008.67,0007.35
2022-07-12 15:08:00,,0830.7,5.00,0.00,29.7,28.2,00.0,38.5,31.5,32.6,-000.6,0020.57,0008.68,0007.36
2022-07-12 15:09:00,,0830.8,4.99,0.00,29.7,28.3,00.0,38.5,31.6,32.6,-000.4,0020.23,0008.65,0007.38
2022-07-12 15:10:00,,0830.7,5.00,0.00,29.7,28.4,00.0,38.5,31.6,32.7,-000.1,0020.68,0008.65,0007.38
2022-07-12 15:11:00,,0830.8,5.00,0.00,29.7,28.5,00.0,38.5,31.7,31.6,-000.5,0021.64,0008.66,0007.37
2022-07-12 15:12:00,,0830.8,4.99,0.00,29.7,28.6,00.0,38.5,31.7,30.8,-000.1,0022.00,0008.71,0007.40
2022-07-12 15:13:00,,0830.8,5.00,0.00,29.8,28.7,00.0,38.5,31.7,31.3,-000.0,0023.23,0008.73,0007.42
2022-07-12 15:14:00,,0830.8,5.00,0.00,29.8,28.7,00.0,38.5,31.7,31.2,0000.0,0022.30,0008.74,0007.41
2022-07-12 15:15:00,,0830.7,5.00,0.00,29.8,28.6,00.0,38.5,31.8,31.1,0000.0,0022.07,0008.70,0007.37
2022-07-12 15:16:00,,0830.8,5.00,0.00,29.8,28.0,00.0,38.5,31.7,31.1,0000.0,0022.17,0008.67,0007.35
2022-07-12 15:17:00,,0830.8,5.00,0.00,29.8,27.4,00.0,38.4,31.5,31.3,0000.0,0021.74,0008.62,0007.34
2022-07-12 15:18:00,,0830.7,5.01,0.00,29.7,27.3,00.0,38.4,31.4,31.5,0000.0,0022.20,0008.56,0007.33
2022-07-12 15:19:00,,0830.7,5.01,0.00,29.6,27.4,00.0,38.4,31.4,31.7,0000.0,0022.00,0008.52,0007.30
2022-07-12 15:20:00,,0830.6,5.00,0.00,29.6,27.5,00.0,38.4,31.4,31.7,0000.0,0021.64,0008.50,0007.29
2022-07-12 15:21:00,,0830.6,4.99,0.00,29.6,27.7,00.0,38.4,31.4,31.5,0000.0,0021.96,0008.47,0007.27
2022-07-12 15:22:00,,0830.6,5.00,0.00,29.6,27.8,00.0,38.4,31.4,31.5,0000.0,0021.14,0008.45,0007.26
2022-07-12 15:23:00,,0830.6,5.01,0.00,29.6,27.9,00.0,38.4,31.4,31.6,0000.0,0020.50,0008.40,0007.24
2022-07-12 15:24:00,,0830.6,5.00,0.00,29.6,28.1,00.0,38.4,31.4,31.7,0000.0,0018.61,0008.33,0007.24
2022-07-12 15:25:00,,0830.6,5.01,0.00,29.6,28.2,00.0,38.4,31.5,32.1,0000.0,0019.21,0008.28,0007.24
2022-07-12 15:26:00,,0830.6,4.99,0.00,29.6,28.3,00.0,38.4,31.5,31.5,0000.0,0018.64,0008.31,0007.25
2022-07-12 15:27:00,,0830.6,5.00,0.00,29.7,28.4,00.0,38.4,31.6,31.0,0000.0,0018.75,0008.36,0007.28
2022-07-12 15:28:00,,0830.6,4.99,0.00,29.7,28.5,00.0,38.4,31.6,30.9,0000.0,0018.28,0008.42,0007.30
2022-07-12 15:29:00,,0830.6,5.01,0.00,29.7,28.6,00.0,38.5,31.6,31.0,0000.0,0018.14,0008.46,0007.34
2022-07-12 15:30:00,,0830.7,4.99,0.00,29.7,28.6,00.0,38.5,31.7,31.2,0000.0,0018.19,0008.50,0007.36
2022-07-12 15:31:00,,0830.7,5.00,0.00,29.8,28.7,00.0,38.5,31.7,31.4,0000.0,0019.05,0008.52,0007.37
2022-07-12 15:32:00,,0830.6,5.00,0.00,29.8,28.6,00.0,38.5,31.7,31.4,0000.0,0018.93,0008.55,0007.39
2022-07-12 15:33:00,,0830.6,5.01,0.00,29.8,28.0,00.0,38.4,31.6,31.3,0000.0,0018.58,0008.56,0007.41
2022-07-12 15:34:00,,0830.6,5.01,0.00,29.7,27.5,00.0,38.4,31.5,31.6,0000.0,0018.55,0008.54,0007.39
2022-07-12 15:35:00,,0830.6,5.01,0.00,29.7,27.3,00.0,38.4,31.4,31.5,0000.0,0018.52,0008.59,0007.40
2022-07-12 15:36:00,,0830.6,5.00,0.00,29.6,27.4,00.0,38.4,31.3,31.8,0000.0,0018.54,0008.67,0007.43
2022-07-12 15:37:00,,0830.6,4.99,0.00,29.6,27.5,00.0,38.4,31.3,32.0,0000.0,0018.72,0008.68,0007.45
2022-07-12 15:38:00,,0830.6,5.00,0.00,29.6,27.6,00.0,38.4,31.3,31.8,0000.0,0018.78,0008.63,0007.43
2022-07-12 15:39:00,,0830.5,5.01,0.00,29.6,27.8,00.0,38.4,31.4,31.8,0000.0,0018.88,0008.63,0007.44
2022-07-12 15:40:00,,0830.6,4.99,0.00,29.6,27.9,00.0,38.4,31.4,31.9,0000.0,0018.67,0008.66,0007.43
2022-07-12 15:41:00,,0830.5,4.99,0.00,29.6,28.1,00.0,38.4,31.4,32.7,0000.0,0019.05,0008.63,0007.42
2022-07-12 15:42:00,,0830.6,5.01,0.00,29.6,28.2,00.0,38.4,31.5,32.6,0000.0,0018.23,0008.62,0007.40
2022-07-12 15:43:00,,0830.6,4.99,0.00,29.6,28.3,00.0,38.4,31.5,32.5,0000.0,0017.78,0008.61,0007.38
2022-07-12 15:44:00,,0830.5,5.01,0.00,29.7,28.4,00.0,38.4,31.5,32.2,0000.0,0018.54,0008.65,0007.40
2022-07-12 15:45:00,,0830.5,5.00,0.00,29.7,28.5,00.0,38.4,31.6,32.0,0000.0,0019.38,0008.69,0007.45
2022-07-12 15:46:00,,0830.5,5.00,0.00,29.7,28.6,00.0,38.4,31.6,32.0,0000.0,0019.56,0008.72,0007.49
2022-07-12 15:47:00,,0830.5,4.99,0.00,29.7,28.5,00.0,38.4,31.7,32.1,0000.0,0018.62,0008.71,0007.51
2022-07-12 15:48:00,,0830.4,5.01,0.00,29.7,27.9,00.0,38.4,31.6,32.4,0000.0,0018.39,0008.75,0007.54
2022-07-12 15:49:00,,0830.5,5.00,0.00,29.7,27.4,00.0,38.3,31.5,32.5,0000.0,0017.82,0008.76,0007.56
2022-07-12 15:50:00,,0830.5,5.00,0.00,29.6,27.3,00.0,38.3,31.4,32.4,0000.0,0017.20,0008.75,0007.56
2022-07-12 15:51:00,,0830.5,5.00,0.00,29.6,27.4,00.0,38.3,31.3,32.4,0000.0,0016.99,0008.77,0007.58
2022-07-12 15:52:00,,0830.5,5.00,0.00,29.5,27.5,00.0,38.3,31.3,32.4,0000.0,0016.88,0008.85,0007.62
2022-07-12 15:53:00,,0830.5,5.00,0.00,29.5,27.7,00.0,38.3,31.3,32.3,0001.2,0017.33,0008.92,0007.69
2022-07-12 15:54:00,,0830.5,4.99,0.00,29.5,27.8,00.0,38.3,31.4,32.4,0000.9,0017.22,0008.95,0007.75
2022-07-12 15:55:00,,0830.5,5.00,0.00,29.5,28.0,00.0,38.3,31.4,32.5,0001.2,0017.00,0008.95,0007.78
2022-07-12 15:56:00,,0830.5,5.00,0.00,29.6,28.1,00.0,38.3,31.4,32.6,0000.5,0016.63,0008.97,0007.77
2022-07-12 15:57:00,,0830.5,5.00,0.00,29.6,28.2,00.0,38.4,31.5,32.8,0000.0,0016.80,0008.99,0007.75
2022-07-12 15:58:00,,0830.5,4.99,0.00,29.6,28.4,00.0,38.4,31.5,32.8,0000.4,0017.09,0008.96,0007.74
2022-07-12 15:59:00,,0830.5,5.00,0.00,29.6,28.5,00.0,38.4,31.6,32.8,0000.0,0017.58,0008.99,0007.73
